SQ9NFI-4 Weather Reports


Display with metric or nautical units.
time (UTC)temp
F
wind
direction
speed
MPH
gust
MPH
rain 1hr
in
rain 24hr
in
rain mn
in
humidity
%
barometer
mb
20260504012016 41 356 0.0 1.0 0.00 0.00 0.00 91 1016.3
20260504011516 41 320 1.0 1.0 0.00 0.00 0.00 90 1016.3
20260504011016 41 320 1.0 2.0 0.00 0.00 0.00 92 1015.9
20260504010516 41 331 0.0 1.0 0.00 0.00 0.00 92 1015.9
20260504010016 41 353 1.0 1.0 0.00 0.00 0.00 94 1016.3
20260504005516 41 342 0.0 0.0 0.00 0.00 0.00 93 1016.3
20260504005016 41 344 1.0 1.0 0.00 0.00 0.00 94 1016.3
20260504004516 41 351 1.0 1.0 0.00 0.00 0.00 94 1016.3
20260504004016 41 344 0.0 1.0 0.00 0.00 0.00 94 1016.3
20260504003516 41 344 0.0 0.0 0.00 0.00 0.00 93 1016.3
20260504003016 42 347 0.0 1.0 0.00 0.00 0.00 94 1016.3
20260504002516 42 344 1.0 1.0 0.00 0.00 0.00 93 1016.3
20260504002016 42 349 1.0 1.0 0.00 0.00 0.00 93 1016.3
20260504001516 42 340 0.0 1.0 0.00 0.00 0.00 93 1016.3
20260504001016 42 348 0.0 0.0 0.00 0.00 0.00 93 1016.6
20260504000516 42 347 0.0 0.0 0.00 0.00 0.00 93 1016.6
20260504000016 42 346 0.0 0.0 0.00 0.00 0.00 92 1016.6
20260503235516 42 344 1.0 1.0 0.00 0.00 0.00 93 1016.6
20260503235016 42 343 0.0 0.0 0.00 0.00 0.00 92 1016.6
20260503234516 42 342 0.0 0.0 0.00 0.00 0.00 93 1016.6
20260503234016 43 338 1.0 1.0 0.00 0.00 0.00 93 1016.6
20260503233516 43 352 1.0 1.0 0.00 0.00 0.00 92 1016.6
20260503233016 43 343 0.0 0.0 0.00 0.00 0.00 92 1016.6
20260503232516 43 341 0.0 0.0 0.00 0.00 0.00 91 1016.6
20260503232016 44 337 0.0 0.0 0.00 0.00 0.00 90 1016.6
20260503231516 44 342 0.0 0.0 0.00 0.00 0.00 90 1016.6
20260503231016 44 346 0.0 0.0 0.00 0.00 0.00 89 1016.9
20260503230516 44 344 1.0 1.0 0.00 0.00 0.00 89 1016.9
20260503230016 44 1 2.0 2.0 0.00 0.00 0.00 90 1016.9
20260503225516 44 351 0.0 1.0 0.00 0.00 0.00 90 1016.9
20260503224516 45 346 0.0 1.0 0.00 0.00 0.00 87 1016.9
20260503224016 45 352 1.0 1.0 0.00 0.00 0.00 88 1016.9
20260503223016 46 0 1.0 2.0 0.00 0.00 0.00 86 1016.9
20260503222516 46 7 2.0 2.0 0.00 0.00 0.00 84 1016.9
20260503222016 46 358 1.0 2.0 0.00 0.00 0.00 86 1016.9
20260503221516 46 356 1.0 2.0 0.00 0.00 0.00 85 1016.9
20260503221016 46 358 1.0 1.0 0.00 0.00 0.00 86 1016.9
20260503220016 46 7 2.0 2.0 0.00 0.00 0.00 86 1016.9
20260503215516 47 355 1.0 2.0 0.00 0.00 0.00 87 1016.9
20260503215016 47 351 1.0 1.0 0.00 0.00 0.00 87 1016.9
20260503214516 47 4 1.0 2.0 0.00 0.00 0.00 85 1016.9
20260503214016 47 347 0.0 0.0 0.00 0.00 0.00 85 1016.9
20260503213516 47 351 2.0 2.0 0.00 0.00 0.00 88 1016.9
20260503213016 47 342 1.0 1.0 0.00 0.00 0.00 87 1016.9
20260503212516 47 341 1.0 1.0 0.00 0.00 0.00 88 1016.9
20260503211016 48 348 1.0 1.0 0.00 0.00 0.00 85 1016.9
20260503210516 49 340 0.0 1.0 0.00 0.00 0.00 84 1016.9
20260503210016 49 351 1.0 1.0 0.00 0.00 0.00 86 1016.9
20260503205016 49 339 0.0 1.0 0.00 0.00 0.00 86 1016.9
20260503204016 49 335 1.0 1.0 0.00 0.00 0.00 84 1016.9
20260503203516 50 334 1.0 1.0 0.00 0.00 0.00 83 1016.9
20260503203016 50 335 0.0 0.0 0.00 0.00 0.00 83 1016.9
20260503202516 50 335 0.0 0.0 0.00 0.00 0.00 83 1016.9
20260503202016 51 337 0.0 1.0 0.00 0.00 0.00 81 1016.9
20260503201516 51 337 0.0 0.0 0.00 0.00 0.00 82 1016.9
20260503201016 51 335 0.0 0.0 0.00 0.00 0.00 81 1016.9
20260503200516 51 340 0.0 0.0 0.00 0.00 0.00 80 1016.9
20260503200016 52 338 0.0 0.0 0.00 0.00 0.00 79 1016.6
20260503195516 52 342 0.0 1.0 0.00 0.00 0.00 78 1016.6
20260503195016 52 337 0.0 1.0 0.00 0.00 0.00 80 1016.9
20260503194516 53 338 0.0 0.0 0.00 0.00 0.00 79 1016.9
20260503194016 53 337 0.0 0.0 0.00 0.00 0.00 80 1016.9
20260503193516 53 337 0.0 0.0 0.00 0.00 0.00 79 1016.9
20260503193016 53 336 0.0 0.0 0.00 0.00 0.00 77 1016.9
20260503192516 54 337 0.0 0.0 0.00 0.00 0.00 76 1016.6
20260503192016 54 338 0.0 0.0 0.00 0.00 0.00 78 1016.6
20260503191516 55 338 0.0 0.0 0.00 0.00 0.00 76 1016.6
20260503191016 55 337 1.0 1.0 0.00 0.00 0.00 68 1016.6
20260503190516 56 336 0.0 0.0 0.00 0.00 0.00 77 1016.6
20260503190016 56 336 0.0 0.0 0.00 0.00 0.00 66 1016.6
20260503185516 57 338 1.0 1.0 0.00 0.00 0.00 66 1016.6
20260503185016 57 335 0.0 0.0 0.00 0.00 0.00 69 1016.3
20260503184516 58 330 0.0 0.0 0.00 0.00 0.00 66 1016.3
20260503184016 58 331 0.0 0.0 0.00 0.00 0.00 62 1016.3
20260503183516 58 332 0.0 0.0 0.00 0.00 0.00 65 1016.3
20260503183016 60 336 0.0 0.0 0.00 0.00 0.00 71 1016.3
20260503182516 60 336 0.0 0.0 0.00 0.00 0.00 59 1015.9
20260503182016 61 337 0.0 1.0 0.00 0.00 0.00 62 1015.9
20260503181516 61 322 0.0 0.0 0.00 0.00 0.00 60 1015.9
20260503181016 62 332 0.0 0.0 0.00 0.00 0.00 52 1015.9
20260503180516 64 329 0.0 0.0 0.00 0.00 0.00 56 1015.9
20260503180016 65 329 0.0 0.0 0.00 0.00 0.00 53 1015.9
20260503175516 66 326 0.0 0.0 0.00 0.00 0.00 44 1015.9
20260503175016 67 324 0.0 0.0 0.00 0.00 0.00 42 1015.2
20260503174516 69 318 1.0 1.0 0.00 0.00 0.00 40 1015.2
20260503174016 71 318 0.0 0.0 0.00 0.00 0.00 36 1015.2
20260503173516 73 320 0.0 0.0 0.00 0.00 0.00 35 1015.9
20260503173016 74 327 0.0 0.0 0.00 0.00 0.00 31 1015.9
20260503172516 75 310 1.0 6.0 0.00 0.00 0.00 29 1015.2
20260503172016 76 310 1.0 1.0 0.00 0.00 0.00 29 1015.2
20260503171516 76 296 1.0 1.0 0.00 0.00 0.00 26 1015.2
20260503171016 76 267 2.0 3.0 0.00 0.00 0.00 26 1015.9
20260503170516 77 312 1.0 2.0 0.00 0.00 0.00 26 1015.9
20260503150516 79 258 9.0 11.0 0.00 0.00 0.00 21 1016.6
20260503130516 80 337 1.0 10.0 0.00 0.00 0.00 24 1017.3
20260503110516 78 144 4.0 5.0 0.00 0.00 0.00 25 1019.0
20260503081516 72 252 9.0 13.0 0.00 0.00 0.00 35 1020.0
20260503081016 72 287 4.0 6.0 0.00 0.00 0.00 33 1020.0
20260503080516 72 209 10.0 10.0 0.00 0.00 0.00 34 1020.0
20260503072516 70 222 4.0 4.0 0.00 0.00 0.00 37 1020.0
20260503072016 69 239 8.0 11.0 0.00 0.00 0.00 37 1020.0
20260503071516 70 198 8.0 12.0 0.00 0.00 0.00 38 1020.0
20260503071016 69 294 7.0 10.0 0.00 0.00 0.00 37 1020.0
20260503070516 69 238 4.0 5.0 0.00 0.00 0.00 38 1020.0
20260503055016 62 311 4.0 6.0 0.00 0.00 0.00 47 1020.0
20260503054516 61 233 9.0 10.0 0.00 0.00 0.00 46 1020.0
20260503054016 60 332 1.0 1.0 0.00 0.00 0.00 57 1020.0
20260503053516 58 344 0.0 0.0 0.00 0.00 0.00 63 1020.0
20260503053016 57 344 1.0 1.0 0.00 0.00 0.00 63 1020.0
20260503052516 58 344 0.0 1.0 0.00 0.00 0.00 64 1020.0
20260503052016 57 344 0.0 0.0 0.00 0.00 0.00 69 1020.0
20260503051516 55 344 1.0 1.0 0.00 0.00 0.00 63 1020.0
20260503051016 54 343 0.0 0.0 0.00 0.00 0.00 67 1020.0
20260503050516 52 343 0.0 0.0 0.00 0.00 0.00 70 1020.0
20260503050016 51 342 0.0 0.0 0.00 0.00 0.00 74 1020.0
20260503045516 49 344 0.0 0.0 0.00 0.00 0.00 76 1020.0
20260503045016 49 342 1.0 1.0 0.00 0.00 0.00 82 1020.0
20260503044516 48 342 0.0 0.0 0.00 0.00 0.00 79 1020.0
20260503044016 47 343 0.0 0.0 0.00 0.00 0.00 84 1020.0
20260503043516 46 343 0.0 0.0 0.00 0.00 0.00 86 1020.0
20260503043016 44 343 0.0 0.0 0.00 0.00 0.00 94 1020.0
20260503042516 43 344 0.0 1.0 0.00 0.00 0.00 97 1020.0
20260503042016 42 344 0.0 1.0 0.00 0.00 0.00 98 1020.0
20260503041516 42 338 0.0 0.0 0.00 0.00 0.00 98 1020.0
20260503041016 41 340 0.0 0.0 0.00 0.00 0.00 98 1020.0
20260503040516 40 339 0.0 0.0 0.00 0.00 0.00 98 1020.0
20260503040016 39 339 0.0 0.0 0.00 0.00 0.00 98 1020.0
20260503035516 38 344 0.0 0.0 0.00 0.00 0.00 98 1020.0
20260503035016 38 344 0.0 0.0 0.00 0.00 0.00 98 1020.0
20260503034516 37 337 0.0 0.0 0.00 0.00 0.00 98 1020.0
20260503034016 37 341 0.0 0.0 0.00 0.00 0.00 98 1020.0
20260503033516 37 343 0.0 0.0 0.00 0.00 0.00 98 1020.0
20260503033016 37 345 1.0 1.0 0.00 0.00 0.00 98 1020.0
20260503032516 37 341 0.0 0.0 0.00 0.00 0.00 97 1020.0
20260503032016 37 341 0.0 0.0 0.00 0.00 0.00 98 1020.0
20260503031516 37 341 0.0 1.0 0.00 0.00 0.00 98 1020.0
20260503031016 37 335 1.0 1.0 0.00 0.00 0.00 98 1020.0
20260503030516 37 330 0.0 0.0 0.00 0.00 0.00 98 1020.0
20260503030016 37 335 0.0 0.0 0.00 0.00 0.00 97 1020.0
20260503025516 37 339 0.0 0.0 0.00 0.00 0.00 97 1020.0
20260503025016 37 338 0.0 0.0 0.00 0.00 0.00 97 1020.0
20260503024516 37 338 0.0 0.0 0.00 0.00 0.00 97 1020.0
20260503024016 38 338 0.0 0.0 0.00 0.00 0.00 97 1020.0
20260503023516 38 343 0.0 0.0 0.00 0.00 0.00 97 1020.0
20260503023016 38 343 0.0 0.0 0.00 0.00 0.00 97 1020.0
20260503022516 38 343 0.0 1.0 0.00 0.00 0.00 97 1020.0
20260503022016 37 343 0.0 0.0 0.00 0.00 0.00 97 1020.0
20260503021516 38 343 0.0 0.0 0.00 0.00 0.00 97 1020.0
20260503021016 38 343 0.0 0.0 0.00 0.00 0.00 97 1020.0
20260503020516 37 343 0.0 0.0 0.00 0.00 0.00 97 1020.0
20260503020016 38 345 0.0 0.0 0.00 0.00 0.00 97 1020.0
20260503015516 38 351 1.0 1.0 0.00 0.00 0.00 97 1020.0
20260503015016 38 349 1.0 1.0 0.00 0.00 0.00 97 1020.0
20260503014516 38 344 0.0 0.0 0.00 0.00 0.00 97 1020.0
20260503014016 38 346 1.0 1.0 0.00 0.00 0.00 97 1020.0
20260503013516 38 334 0.0 0.0 0.00 0.00 0.00 97 1020.0
20260503013016 38 331 0.0 0.0 0.00 0.00 0.00 97 1020.0
20260503012516 39 331 0.0 0.0 0.00 0.00 0.00 97 1020.0